ギブス彗星

C/2011 A3 ( Gibbs )

English version
Home page
Updated on February 3, 2013

---------------------------------------------------------------------

・ プロフィール

発見日 2011年1月15日
発見光度 18.4等
発見者 A. R. Gibbs (Catalina)

・ 写真集

・ 軌道要素

Epoch 2011 Dec. 25.0 TT = JDT 2455920.5
T 2011 Dec. 16.08160 TT                                 MPC
q   2.3449152            (2000.0)            P               Q
z  +0.0009160      Peri.  141.16186     -0.01649190     +0.93259757
 +/-0.0000006      Node   124.89030     -0.99145479     +0.03141512
e   0.9978521      Incl.   26.07522     -0.12940405     -0.35954813
From 1566 observations 2011 Jan. 15-2012 Dec. 8, mean residual 0".6.

・ 星図

・ 光度変化

        m1 = 5.5 + 5 logΔ + 15.0 log r

---------------------------------------------------------------------

軌道要素はM.P.E.C. 2012-Y30に掲載されたものです。
星図はステラナビゲータ Ver.8 (アストロアーツ) で作成したものです。
光度グラフはComet for Windowsで作成したものです。

---------------------------------------------------------------------

Copyright(C) Seiichi Yoshida (comet@aerith.net). All rights reserved.